This is the latest recevied weather packets stored in our database for station/object YC0ACE-13. If no packets are shown the sender has not sent any weather packets the latest 10 day(s).
| Time | Temp. | Humidity | Pressure | Rain* | Wind** | Luminosity | Snow |
|---|---|---|---|---|---|---|---|
| 1777975824 | 29.44° C | 77% | 1013.5 hPa | 0 mm | - | 29 W/m² | - |
| 1777975524 | 29.44° C | 76% | 1013.9 hPa | 0 mm | - | 36 W/m² | - |
| 1777975224 | 29.44° C | 77% | 1013.5 hPa | 0 mm | - | 48 W/m² | - |
| 1777974925 | 30° C | 76% | 1013.9 hPa | 0 mm | - | 61 W/m² | - |
| 1777974625 | 30° C | 75% | 1013.9 hPa | 0 mm | - | 70 W/m² | - |
| 1777974324 | 30° C | 74% | 1013.9 hPa | 0 mm | - | 79 W/m² | - |
| 1777974025 | 30° C | 75% | 1013.5 hPa | 0 mm | - | 90 W/m² | - |
| 1777973725 | 30° C | 74% | 1013.9 hPa | 0 mm | - | 103 W/m² | - |
| 1777973425 | 30° C | 74% | 1013.5 hPa | 0 mm | - | 106 W/m² | - |
| 1777973128 | 30° C | 74% | 1013.5 hPa | 0 mm | - | 96 W/m² | - |
| 1777972824 | 30° C | 75% | 1013.5 hPa | 0 mm | - | 99 W/m² | - |
| 1777972525 | 30° C | 75% | 1013.2 hPa | 0 mm | - | 114 W/m² | - |
| 1777972230 | 30° C | 74% | 1013.5 hPa | 0 mm | - | 115 W/m² | - |
| 1777971925 | 30° C | 74% | 1013.2 hPa | 0 mm | - | 126 W/m² | - |
| 1777971625 | 30° C | 74% | 1013.2 hPa | 0 mm | - | 132 W/m² | - |
| 1777971325 | 30° C | 73% | 1013.2 hPa | 0 mm | - | 150 W/m² | - |
| 1777971024 | 30.56° C | 72% | 1012.9 hPa | 0 mm | - | 172 W/m² | - |
| 1777970724 | 30.56° C | 72% | 1012.9 hPa | 0 mm | - | 189 W/m² | - |
| 1777970425 | 30.56° C | 71% | 1012.9 hPa | 0 mm | - | 179 W/m² | - |
| 1777970124 | 30.56° C | 71% | 1012.9 hPa | 0 mm | - | 201 W/m² | - |
| 1777969825 | 30.56° C | 70% | 1012.9 hPa | 0 mm | - | 235 W/m² | - |
| 1777969525 | 30.56° C | 71% | 1012.9 hPa | 0 mm | - | 241 W/m² | - |
| 1777969224 | 31.11° C | 70% | 1012.9 hPa | 0 mm | - | 219 W/m² | - |
| 1777968924 | 31.11° C | 69% | 1012.9 hPa | 0 mm | - | 238 W/m² | - |
| 1777968625 | 31.67° C | 69% | 1012.9 hPa | 0 mm | - | 295 W/m² | - |
* Rain latest hour (hover to see other rain measurements)
** Current wind speed in m/s (hover to see current wind gust speed)